Location: Unspecified
(0.0000°N, 0.0000°E)
Time: 04:28:26
(UTC+00:00)

Galileo 6 - Visible Passes

Search period start: 16 April 2024 00:00
Search period end: 26 April 2024 00:00
Orbit: 17102 x 26096 km, 49.7° (Epoch: 12 April)

Date Brightness Start Highest point End Pass type
(mag) Time Alt. Az. Time Alt. Az. Time Alt. Az.
16 Apr ? 04:35:42 10° SW 08:29:25 52° W 14:45:01 10° E visible
17 Apr ? 07:55:17 10° SW 15:56:47 49° ENE 18:18:07 10° SE visible
18 Apr ? 15:49:13 10° NNW 18:10:45 85° ENE 21:22:19 10° SE visible
19 Apr ? 18:24:01 10° NW 20:22:52 58° WSW 05:39:16 10° NE daylight
20 Apr ? 21:14:01 10° WNW 05:10:13 68° E 08:20:14 10° NNE visible
22 Apr ? 01:57:16 10° SW 06:55:20 76° W 11:07:46 10° NE visible
23 Apr ? 05:09:26 10° SW 08:33:29 41° W 15:40:58 10° ESE visible
24 Apr ? 13:08:44 10° NW 16:15:38 60° ENE 18:50:01 10° SE visible
25 Apr ? 16:14:26 10° NW 18:26:54 82° WSW 22:22:32 10° SE visible
25 Apr ? 16:14:27 10° NW 18:26:54 82° WSW 22:22:32 10° SE visible
